Flag for U.S.A. Weather past 2 weeks in Juneau, Alaska, U.S.A.

Now
43 °F

Passing clouds.


Feels Like: 43 °F
Forecast: 38 / 53 °F
Wind: No wind

Location: Juneau International Airport

Current Time: May 7, 2015 at 12:56:53 AM

Latest Report: May 6, 2015 at 11:53 PM


Visibility: 10 mi

Pressure: 30.16 "Hg

Humidity: 76%

Dew point: 36 °F

Location of JuneauLocation

Historic Weather in Juneau — Graph

°F

Juneau temperature yesterday

Maximum temperature yesterday: 57 °F (at 3:53 PM)
Minimum temperature yesterday: 36 °F (at 2:53 AM)
Average temperature yesterday: 48 °F

Past Weeks' High & Low Weather Summary

 TemperatureHumidityPressure
High62 °F (Apr 25, 3:53 PM)97% (Apr 28, 7:53 PM)30.18 "Hg (Apr 28, 7:53 PM)
Low30 °F (Apr 23, 1:53 AM)18% (May 4, 5:53 PM)29.15 "Hg (Apr 28, 8:53 AM)
Average45 °F69%29.87 "Hg
* Reported Apr 21 11:53 PM — May 6 11:53 PM, Juneau, Weather by CustomWeather, © 2015

Note: Actual official high and low records may vary slightly from our data, if they occured in-between our weather recording intervals... More about our weather records

Advertising

Juneau weather history for previous 24 hours

 ConditionsComfort  
Time TempWeatherWind HumidityBarometerVisibility
11:53 PM
Wed, May 6
43 °FPassing clouds.No wind76%30.16 "Hg10 mi
10:53 PM44 °FMostly cloudy.3 mph76%30.15 "Hg10 mi
9:53 PM47 °FPartly sunny.3 mph69%30.14 "Hg10 mi
8:53 PM50 °FOvercast.No wind61%30.15 "Hg10 mi
7:53 PM54 °FOvercast.3 mph53%30.15 "Hg10 mi
6:53 PM55 °FPartly sunny.7 mph47%30.14 "Hg10 mi
5:53 PM56 °FPartly sunny.9 mph42%30.14 "Hg10 mi
4:53 PM57 °FPartly sunny.10 mph41%30.14 "Hg10 mi
3:53 PM57 °FPartly sunny.10 mph42%30.15 "Hg10 mi
2:53 PM56 °FPartly sunny.12 mph44%30.15 "Hg10 mi
1:53 PM55 °FOvercast.12 mph45%30.16 "Hg10 mi
12:53 PM55 °FOvercast.8 mph44%30.17 "Hg10 mi
11:53 AM53 °FOvercast.9 mph47%30.18 "Hg10 mi
10:53 AM52 °FOvercast.8 mph49%30.18 "Hg10 mi
9:53 AM51 °FOvercast.7 mph54%30.18 "Hg10 mi
8:53 AM49 °FOvercast.7 mph57%30.18 "Hg10 mi
7:53 AM48 °FOvercast.3 mph52%30.18 "Hg10 mi
6:53 AM42 °FOvercast.No wind71%30.18 "Hg10 mi
5:53 AM38 °FOvercast.No wind76%30.18 "Hg10 mi
4:53 AM36 °FOvercast.No wind82%30.17 "Hg10 mi
3:53 AM37 °FPassing clouds.No wind76%30.16 "Hg10 mi
2:53 AM36 °FPassing clouds.3 mph79%30.16 "Hg10 mi
1:53 AM38 °FPassing clouds.No wind76%30.15 "Hg10 mi
12:53 AM40 °FPassing clouds.No wind73%30.15 "Hg10 mi
Weather by CustomWeather, © 2015

See weather overviewHow to use our weather pages